Weather History for Bangkok (Suvarnabhumi), Thailand

Change the Weather History Date:

Friday, November 23, 2012

  Actual Average (VTBD) Record (VTBD)
Temperature  
Mean Temperature 84 °F -  
Max Temperature 91 °F 89 °F 96 °F (2012)
Min Temperature 78 °F 70 °F 66 °F (2001)
Cooling Degree Days 20    
Growing Degree Days 34 (Base 50)    
Moisture  
Dew Point 75 °F    
Average Humidity 72    
Maximum Humidity 89    
Minimum Humidity 52    
Precipitation  
Precipitation 0.00 in 0.03 in - ()
Sea Level Pressure  
Sea Level Pressure 29.81 in    
Wind  
Wind Speed 4 mph ()    
Max Wind Speed 10 mph    
Max Gust Speed -    
Visibility 6.0 miles    
Events      
Averages and records for this station are not official NWS values.
T = Trace of Precipitation, MM = Missing Value Source: Averaged Metar Reports

Daily Weather History Graph

Daily Weather History Graph

Search for Another Location

Airport:

Trip Planner

Search our weather history database for the weather conditions in past years. The results will help you decide how hot, cold, wet, or windy it might be!

Date:

Astronomy

Nov. 23, 2012 Rise Set
Actual Time 6:19 AM ICT 5:45 PM ICT
Civil Twilight 5:56 AM ICT 6:08 PM ICT
Nautical Twilight 5:30 AM ICT 6:34 PM ICT
Astronomical Twilight 5:04 AM ICT 7:00 PM ICT
Moon 2:06 PM ICT (11/23) 1:51 AM ICT (11/23)
Length of Visible Light 12h 12m
Length of Day
11h 26m
Waxing Gibbous, 75% of the Moon is Illuminated
Nov 23
Waxing Gibbous
Nov 28
Full
Dec 6
Last Quarter
Dec 13
New
Dec 20
First Quarter

Hourly Weather History & Observations

Time (ICT) Temp. Heat Index Dew Point Humidity Pressure Visibility Wind Dir Wind Speed Gust Speed Precip Events Conditions
12:00 AM 80.6 °F 86.2 °F 75.2 °F 84% 29.83 in 6.2 mi SSW 3.5 mph - N/A   Scattered Clouds
12:30 AM 82.4 °F 89.5 °F 75.2 °F 79% 29.83 in 6.2 mi SSW 4.6 mph - N/A   Scattered Clouds
1:00 AM 82 °F - 76 °F 77% 29.80 in 6 mi Calm Calm - -   Scattered Clouds
1:00 AM 82.4 °F 89.5 °F 75.2 °F 79% 29.80 in 6.2 mi SSW 4.6 mph - N/A   Scattered Clouds
1:30 AM 80.6 °F 86.2 °F 75.2 °F 84% 29.80 in 6.2 mi SW 4.6 mph - N/A   Scattered Clouds
2:00 AM 80.6 °F 86.2 °F 75.2 °F 84% 29.80 in 5.6 mi SW 5.8 mph - N/A   Scattered Clouds
2:30 AM 80.6 °F 86.2 °F 75.2 °F 84% 29.80 in 5.6 mi SSW 4.6 mph - N/A   Scattered Clouds
3:00 AM 80.6 °F 86.2 °F 75.2 °F 84% 29.80 in 5.6 mi SW 3.5 mph - N/A   Scattered Clouds
3:30 AM 80.6 °F 86.2 °F 75.2 °F 84% 29.77 in 5.6 mi SW 4.6 mph - N/A   Scattered Clouds
4:00 AM 80.6 °F 86.2 °F 75.2 °F 84% 29.77 in 5.6 mi SSW 3.5 mph - N/A   Scattered Clouds
4:30 AM 80.6 °F 86.2 °F 75.2 °F 84% 29.80 in 5.6 mi South 3.5 mph - N/A   Scattered Clouds
5:00 AM 80.6 °F 86.2 °F 75.2 °F 84% 29.80 in 5.6 mi SW 3.5 mph - N/A   Scattered Clouds
5:30 AM 80.6 °F 86.2 °F 75.2 °F 84% 29.80 in 5.6 mi SSW 3.5 mph - N/A   Scattered Clouds
6:00 AM 78.8 °F - 75.2 °F 89% 29.80 in 5.0 mi Calm Calm - N/A   Scattered Clouds
6:30 AM 78.8 °F - 75.2 °F 89% 29.83 in 5.0 mi Calm Calm - N/A   Scattered Clouds
7:00 AM 79 °F - 76 °F 88% 29.81 in 6 mi Calm Calm - -   Clear
7:00 AM 80.6 °F 86.2 °F 75.2 °F 84% 29.83 in 5.6 mi Calm Calm - N/A   Scattered Clouds
7:30 AM 84.2 °F 94.1 °F 77.0 °F 79% 29.86 in 5.6 mi Variable 2.3 mph - N/A   Scattered Clouds
8:00 AM 84.2 °F 94.1 °F 77.0 °F 79% 29.86 in 5.6 mi ENE 3.5 mph - N/A   Scattered Clouds
8:30 AM 86.0 °F 96.9 °F 77.0 °F 74% 29.86 in 6.2 mi SE 3.5 mph - N/A   Scattered Clouds
9:00 AM 86.0 °F 95.1 °F 75.2 °F 70% 29.89 in 6.2 mi South 4.6 mph - N/A   Scattered Clouds
9:30 AM 89.6 °F 99.8 °F 75.2 °F 62% 29.89 in 6.2 mi SW 4.6 mph - N/A   Scattered Clouds
10:00 AM 89.6 °F 98.2 °F 73.4 °F 59% 29.86 in 6.2 mi South 4.6 mph - N/A   Scattered Clouds
10:30 AM 91.4 °F 100.1 °F 73.4 °F 55% 29.86 in 6.2 mi SE 5.8 mph - N/A   Scattered Clouds
11:00 AM 91.4 °F 100.1 °F 73.4 °F 55% 29.86 in 6.2 mi ESE 6.9 mph - N/A   Scattered Clouds
11:30 AM 91.4 °F 100.1 °F 73.4 °F 55% 29.86 in 6.2 mi SE 5.8 mph - N/A   Scattered Clouds
12:00 PM 89.6 °F 99.8 °F 75.2 °F 62% 29.83 in 6.2 mi ESE 5.8 mph - N/A   Scattered Clouds
12:30 PM 91.4 °F 102.5 °F 75.2 °F 59% 29.83 in 6.2 mi South 8.1 mph - N/A   Scattered Clouds
1:00 PM 90 °F - 80 °F 65% 29.79 in 7 mi West 3.5 mph - -   Scattered Clouds
1:00 PM 91.4 °F 105.1 °F 77.0 °F 63% 29.80 in 6.2 mi SSE 6.9 mph - N/A   Scattered Clouds
1:30 PM 93.2 °F 105.0 °F 75.2 °F 56% 29.77 in 6.2 mi South 6.9 mph - N/A   Scattered Clouds
2:00 PM 91.4 °F 102.5 °F 75.2 °F 59% 29.77 in 6.2 mi South 8.1 mph - N/A   Scattered Clouds
2:30 PM 91.4 °F 102.5 °F 75.2 °F 59% 29.74 in 6.2 mi South 6.9 mph - N/A   Scattered Clouds
3:00 PM 93.2 °F 102.4 °F 73.4 °F 52% 29.74 in 6.2 mi SW 10.4 mph - N/A   Mostly Cloudy
3:30 PM 91.4 °F 100.1 °F 73.4 °F 55% 29.71 in 6.2 mi SSW 8.1 mph - N/A   Mostly Cloudy
4:00 PM 93.2 °F 102.4 °F 73.4 °F 52% 29.71 in 6.2 mi SW 9.2 mph - N/A   Mostly Cloudy
4:30 PM 91.4 °F 98.4 °F 71.6 °F 52% 29.71 in 6.2 mi SW 9.2 mph - N/A   Mostly Cloudy
5:00 PM 89.6 °F 96.2 °F 71.6 °F 55% 29.74 in 6.2 mi SSW 9.2 mph - N/A   Mostly Cloudy
5:30 PM 87.8 °F 93.8 °F 71.6 °F 58% 29.74 in 6.2 mi South 9.2 mph - N/A   Mostly Cloudy
6:00 PM 86.0 °F 93.4 °F 73.4 °F 66% 29.77 in 6.2 mi South 9.2 mph - N/A   Mostly Cloudy
7:00 PM 84 °F - 77 °F 74% 29.79 in 7 mi SE 2.3 mph - -   Scattered Clouds
7:00 PM 84.2 °F 90.9 °F 73.4 °F 70% 29.80 in 6.2 mi South 9.2 mph - N/A   Mostly Cloudy
7:30 PM 84.2 °F 90.9 °F 73.4 °F 70% 29.83 in 6.2 mi South 9.2 mph - N/A   Mostly Cloudy
8:00 PM 82.4 °F 89.5 °F 75.2 °F 79% 29.83 in 6.2 mi South 6.9 mph - N/A   Mostly Cloudy
9:00 PM 84.2 °F 92.3 °F 75.2 °F 74% 29.86 in 6.2 mi SW 9.2 mph - N/A   Mostly Cloudy
9:30 PM 84.2 °F 92.3 °F 75.2 °F 74% 29.86 in 6.2 mi South 9.2 mph - N/A   Mostly Cloudy
10:00 PM 84.2 °F 94.1 °F 77.0 °F 79% 29.86 in 6.2 mi South 8.1 mph - N/A   Mostly Cloudy
10:30 PM 82.4 °F 90.9 °F 77.0 °F 84% 29.86 in 6.2 mi South 6.9 mph - N/A   Mostly Cloudy
11:00 PM 82.4 °F 90.9 °F 77.0 °F 84% 29.86 in 6.2 mi South 5.8 mph - N/A   Mostly Cloudy
11:30 PM 82.4 °F 90.9 °F 77.0 °F 84% 29.86 in 6.2 mi South 5.8 mph - N/A   Mostly Cloudy